This is the latest recevied weather packets stored in our database for station/object KC0UFP. If no packets are shown the sender has not sent any weather packets the latest 10 day(s).
| Time | Temp. | Humidity | Pressure | Rain* | Wind** | Luminosity | Snow |
|---|---|---|---|---|---|---|---|
| 1777560473 | 13.89° C | 62% | 1018 hPa | 0 mm | - | 463 W/m² | - |
| 1777560170 | 13.89° C | 63% | 1018.1 hPa | 0 mm | - | 476 W/m² | - |
| 1777559867 | 13.89° C | 67% | 1018.3 hPa | 0 mm | - | 486 W/m² | - |
| 1777559563 | 13.33° C | 67% | 1018.2 hPa | 0 mm | - | 525 W/m² | - |
| 1777559260 | 13.89° C | 65% | 1018.1 hPa | 0 mm | - | 450 W/m² | - |
| 1777558956 | 13.33° C | 70% | 1018.2 hPa | 0 mm | - | 496 W/m² | - |
| 1777558652 | 13.89° C | 68% | 1018.2 hPa | 0 mm | - | 544 W/m² | - |
| 1777558347 | 13.33° C | 68% | 1018.1 hPa | 0 mm | - | 502 W/m² | - |
| 1777558044 | 13.33° C | 67% | 1018.2 hPa | 0 mm | - | 391 W/m² | - |
| 1777557740 | 13.33° C | 70% | 1018.5 hPa | 0 mm | - | 398 W/m² | - |
| 1777557437 | 12.78° C | 68% | 1018.2 hPa | 0 mm | - | 504 W/m² | - |
| 1777557134 | 12.78° C | 70% | 1018.2 hPa | 0 mm | - | 398 W/m² | - |
| 1777556829 | 12.78° C | 69% | 1018.3 hPa | 0 mm | - | 439 W/m² | - |
| 1777556526 | 12.78° C | 70% | 1018.5 hPa | 0 mm | - | 380 W/m² | - |
| 1777556225 | 12.22° C | 70% | 1018.6 hPa | 0 mm | - | 325 W/m² | - |
| 1777555921 | 12.22° C | 71% | 1018.5 hPa | 0 mm | - | 282 W/m² | - |
| 1777555617 | 12.22° C | 73% | 1018.5 hPa | 0 mm | - | 310 W/m² | - |
| 1777555314 | 12.22° C | 73% | 1018.5 hPa | 0 mm | - | 272 W/m² | - |
| 1777555010 | 12.22° C | 72% | 1018.3 hPa | 0 mm | - | 230 W/m² | - |
| 1777554708 | 12.22° C | 71% | 1018.3 hPa | 0 mm | - | 261 W/m² | - |
| 1777554404 | 12.22° C | 72% | 1018.6 hPa | 0 mm | - | 249 W/m² | - |
| 1777554101 | 11.67° C | 71% | 1018.7 hPa | 0 mm | - | 220 W/m² | - |
| 1777553798 | 12.22° C | 72% | 1018.6 hPa | 0 mm | - | 218 W/m² | - |
| 1777553494 | 12.22° C | 70% | 1018.7 hPa | 0 mm | - | 227 W/m² | - |
| 1777553190 | 11.67° C | 73% | 1018.3 hPa | 0 mm | - | 194 W/m² | - |
* Rain latest hour (hover to see other rain measurements)
** Current wind speed in m/s (hover to see current wind gust speed)